Location: Arcizac
(43.0933°N, 0.0112°E)
Time: 14:18:31
(UTC+00:00)

Meteor 1-18 Rocket - Pass Details

Date: 14 December 2019
Orbit: 837 x 909 km, 81.2° (Epoch: 27 January)

Event Time Altitude Azimuth Distance (km) Brightness Sun altitude
Rises 17:57:47 0° 188° (S) 3,451 7.7 -16.2°
Reaches altitude 10° 18:00:14 10° 189° (S) 2,506 7.0 -16.6°
Maximum altitude 18:05:56 89° 269° (W) 863 4.2 -17.6°
Drops below altitude 10° 18:11:34 10° 10° (N) 2,479 6.4 -18.6°
Enters shadow 18:13:26 - 10° (N) 3,203 7.0 -18.9°
